Regional Weather Roundup
Issued by NWS Newport/Morehead, NC

Current Version | Previous Version | Text Only | Print | Product List | Glossary On
Versions: 1 2 3 4 5 6 7 8 9 10 11 12 13 14 15 16 17 18 19 20 21 22 23 24 25 26 27 28 29 30 31 32 33 34 35 36 37 38 39 40 41 42 43 44 45 46 47 48 49 50
000
ASUS42 KMHX 260426
RWRMHX
WEATHER ROUNDUP FOR EASTERN NORTH CAROLINA
NATIONAL WEATHER SERVICE NEWPORT/MOREHEAD CITY NC
1200 AM EDT SAT MAY 26 2018

NOTE: "FAIR" INDICATES FEW OR NO CLOUDS BELOW 12,000 FEET
WITH NO SIGNIFICANT WEATHER AND/OR OBSTRUCTIONS TO VISIBILITY

NCZ015>017-031-032-045>047-102-103-260500-
NORTH COAST

CITY           SKY/WX    TMP DP  RH WIND       PRES   REMARKS
EDENTON        FAIR      76  70  83 SW10      30.01S
ELIZABETH CITY CLOUDY    76  72  87 S13       29.99F
KITTY HAWK     FAIR      74  69  84 SW3       30.00S
MANTEO         FAIR      74  69  85 SW12      30.02S

$$

NCZ045>047-081-094-103-104-260500-
CENTRAL COAST

CITY           SKY/WX    TMP DP  RH WIND       PRES   REMARKS
FRISCO         FAIR      75  72  90 S8        30.03F

$$

NCZ095-097-098-100-101-260500-
SOUTHERN COAST

CITY           SKY/WX    TMP DP  RH WIND       PRES   REMARKS
BEAUFORT       FAIR      74  72  93 SW8       30.03S
CEDAR ISLAND   NOT AVBL
JACKSONVILLE   FAIR      72  72 100 CALM      30.02S
PINEY ISLAND   NOT AVBL
WILMINGTON     FAIR      72  69  90 S5        30.03S


$$

NCZ011>013-027>030-043-044-078>080-089-090>093-098-260500-
COASTAL PLAIN

CITY           SKY/WX    TMP DP  RH WIND       PRES   REMARKS
AHOSKIE        FAIR      72  69  92 S5        30.00S
CLINTON        FAIR      72  71  98 CALM      30.03S
ELIZABETHTOWN  FAIR      71  69  93 S6        30.03S
GOLDSBORO      FAIR      73  70  92 S6        30.00F
GREENVILLE     FAIR      72  70  94 SW8       30.03S
HAVELOCK       CLEAR     74  73  97 S5        30.03F
KENANSVILLE    FAIR      70  70 100 CALM      30.03S
KINSTON        NOT AVBL
NEW BERN       FAIR      71  70  96 S6        30.03F
RICHLANDS      FAIR      71  70  96 S7        30.03F
ROCKY MOUNT    FAIR      73  70  90 S7        30.01S
WASHINGTON     FAIR      72  69  90 CALM      30.02S
WHITEVILLE     FAIR      70  69  96 CALM      30.03S

$$

AMZ130-135-150-152-154-156-158-170-250-252-270-ANZ085-086-088-633-658-670-260500-
MARINE OBSERVATIONS

STATION/POSITION TIME  TEMP    WIND        PRES    WAVE   SWELL
                       AIR SEA DIR/SP/G            HT/PER HT/PER
                 (UTC) (F)     (DEG/KT/KT) (MB)    (FT/S) (FT/S)
CHESAPEAKE LIGHT NOT AVBL
64 E VA BEACH    0350   71 68  200/ 12/ 14 1016.1    3/ 9   2/ 9
DUCK             0400   76 68  210/ 13/ 18 1015.5
2 E DUCK         0400      71                N/A     2/ 8
OREGON INLET     0400   77 80  190/ 17/ 20 1016.2
13E OREGON INLT  0348      71                N/A     2/ 8   2/ 8
HATTERAS CG      0400   75 78  200/  4/  8 1016.5
DIAMOND BUOY     0410   77 78  190/ 14/ 16 1017.2
CAPE LOOKOUT     0400          210/  7/  8 1017.2
BEAUFORT LAB     0400   75 79  210/  6/  9 1017.1
30 SE NEW RVR IN 0408   76 76  200/  6/ 10 1017.2
30 SE NEW RVR IN 0400      77                N/A     2/ 8
27 SE WRIGHTSVLE 0408   76 76  220/  8/ 10 1017.1
5 SE WRIGHTSVLE  0408   74 74  320/  8/ 10 1016.4
225 S CAPE HAT   0410      79  190/  8/ 10 1017.9
41 SE CHARLESTON 0400      76  190/ 10/ 12 1016.8

$$




USA.gov is the U.S. government's official web portal to all federal, state and local government web resources and services.